Location: ????????
(55.0559°N, 39.1270°E)
Time: 01:33:01
(UTC+00:00)

Cosmos 1656 Rocket - Pass Details

Date: 15 November 2025
Orbit: 791 x 846 km, 71.1° (Epoch: 12 December)

Event Time Altitude Azimuth Distance (km) Brightness Sun altitude
Exits shadow 02:38:48 34° 292° (WNW) 1,373 4.3 -19.2°
Maximum altitude 02:40:36 44° 249° (WSW) 1,156 4.0 -19.0°
Drops below altitude 10° 02:45:56 10° 178° (S) 2,462 6.2 -18.2°
Sets 02:48:27 0° 172° (S) 3,389 7.0 -17.9°
